Time,TemperatureF,DewpointF,PressureIn,WindDirection,WindDirectionDegrees,WindSpeedMPH,WindSpeedGustMPH,Humidity,HourlyPrecipIn,Conditions,Clouds,dailyrainin,SoftwareType,DateUTC
2013-03-19 00:03:00,75.0,73.0,29.95,SE,133,0.0,-999.0,92,-99.99,,,-99.99,,2013-03-19 04:03:00,
2013-03-19 00:13:00,75.0,73.0,29.95,SE,133,0.0,-999.0,92,-99.99,,,-99.99,,2013-03-19 04:13:00,
2013-03-19 00:23:00,75.0,73.0,29.95,SE,134,0.0,-999.0,92,-99.99,,,-99.99,,2013-03-19 04:23:00,
2013-03-19 00:33:00,75.0,73.0,29.95,SE,134,0.0,-999.0,92,-99.99,,,-99.99,,2013-03-19 04:33:00,
2013-03-19 00:43:00,75.0,73.0,29.95,SE,134,0.0,-999.0,92,-99.99,,,-99.99,,2013-03-19 04:43:00,
2013-03-19 00:53:00,75.0,73.0,29.95,SE,134,0.0,-999.0,92,-99.99,,,-99.99,,2013-03-19 04:53:00,
2013-03-19 01:02:00,75.0,73.0,29.94,SE,134,0.0,-999.0,93,-99.99,,,-99.99,,2013-03-19 05:02:00,
2013-03-19 01:12:00,75.0,73.0,29.94,SE,134,0.0,-999.0,93,-99.99,,,-99.99,,2013-03-19 05:12:00,
2013-03-19 01:22:00,75.0,73.0,29.94,SE,135,0.0,-999.0,93,-99.99,,,-99.99,,2013-03-19 05:22:00,
2013-03-19 01:32:00,75.0,73.0,29.93,SE,137,0.0,-999.0,93,-99.99,,,-99.99,,2013-03-19 05:32:00,
2013-03-19 01:43:00,75.0,73.0,29.93,SE,137,0.0,-999.0,93,-99.99,,,-99.99,,2013-03-19 05:43:00,
2013-03-19 01:52:00,75.0,73.0,29.93,SSE,149,0.0,-999.0,93,-99.99,,,-99.99,,2013-03-19 05:52:00,
2013-03-19 02:02:00,75.0,73.0,29.92,SSE,149,0.0,-999.0,93,-99.99,,,-99.99,,2013-03-19 06:02:00,
2013-03-19 02:12:00,75.0,73.0,29.92,SSE,149,0.0,-999.0,93,-99.99,,,-99.99,,2013-03-19 06:12:00,
2013-03-19 02:22:00,75.0,73.0,29.92,SE,144,0.0,-999.0,93,-99.99,,,-99.99,,2013-03-19 06:22:00,
2013-03-19 02:32:00,75.0,73.0,29.93,SE,144,0.0,-999.0,93,-99.99,,,-99.99,,2013-03-19 06:32:00,
2013-03-19 02:42:00,75.0,73.0,29.93,SE,144,0.0,-999.0,93,-99.99,,,-99.99,,2013-03-19 06:42:00,
2013-03-19 02:52:00,75.0,73.0,29.91,SE,144,0.0,-999.0,93,-99.99,,,-99.99,,2013-03-19 06:52:00,
2013-03-19 03:02:00,75.0,73.0,29.91,SE,144,0.0,-999.0,93,-99.99,,,-99.99,,2013-03-19 07:02:00,
2013-03-19 03:12:00,75.0,73.0,29.91,SE,144,0.0,-999.0,93,-99.99,,,-99.99,,2013-03-19 07:12:00,
2013-03-19 03:22:00,75.0,73.0,29.91,SE,144,0.0,-999.0,93,-99.99,,,-99.99,,2013-03-19 07:22:00,
2013-03-19 03:32:00,75.0,73.0,29.90,SE,144,0.0,-999.0,93,-99.99,,,-99.99,,2013-03-19 07:32:00,
2013-03-19 03:42:00,75.0,73.0,29.90,SE,144,0.0,-999.0,93,-99.99,,,-99.99,,2013-03-19 07:42:00,
2013-03-19 03:53:00,75.0,73.0,29.89,SE,144,0.0,-999.0,93,-99.99,,,-99.99,,2013-03-19 07:53:00,
2013-03-19 04:03:00,75.0,73.0,29.88,SE,144,0.0,-999.0,93,-99.99,,,-99.99,,2013-03-19 08:03:00,
2013-03-19 04:12:00,75.0,73.0,29.88,SE,144,0.0,-999.0,93,-99.99,,,-99.99,,2013-03-19 08:12:00,
2013-03-19 04:22:00,75.0,73.0,29.88,SE,144,0.0,-999.0,93,-99.99,,,-99.99,,2013-03-19 08:22:00,
2013-03-19 04:32:00,75.0,73.0,29.88,SE,144,0.0,-999.0,93,-99.99,,,-99.99,,2013-03-19 08:32:00,
2013-03-19 04:42:00,75.0,73.0,29.88,SE,144,0.0,-999.0,93,-99.99,,,-99.99,,2013-03-19 08:42:00,
2013-03-19 04:52:00,72.0,70.0,29.90,NNW,334,3.0,-999.0,92,-99.99,,,-99.99,,2013-03-19 08:52:00,
2013-03-19 05:02:00,70.0,68.0,29.89,North,355,12.0,-999.0,92,-99.99,,,-99.99,,2013-03-19 09:02:00,
2013-03-19 05:12:00,70.0,68.0,29.89,North,355,12.0,-999.0,92,-99.99,,,-99.99,,2013-03-19 09:12:00,
2013-03-19 05:22:00,70.0,68.0,29.91,NNW,333,13.0,-999.0,94,-99.99,,,-99.99,,2013-03-19 09:22:00,
2013-03-19 05:33:00,70.0,68.0,29.92,North,355,12.0,-999.0,94,-99.99,,,-99.99,,2013-03-19 09:33:00,
2013-03-19 05:43:00,70.0,68.0,29.92,North,355,12.0,-999.0,94,-99.99,,,-99.99,,2013-03-19 09:43:00,
2013-03-19 05:53:00,69.0,67.0,29.92,North,355,11.0,-999.0,94,-99.99,,,-99.99,,2013-03-19 09:53:00,
2013-03-19 06:03:00,69.0,68.0,29.92,NE,44,9.0,-999.0,95,-99.99,,,-99.99,,2013-03-19 10:03:00,
2013-03-19 06:13:00,69.0,68.0,29.92,NE,44,9.0,-999.0,95,-99.99,,,-99.99,,2013-03-19 10:13:00,
2013-03-19 06:23:00,69.0,68.0,29.92,NE,37,0.0,-999.0,95,-99.99,,,-99.99,,2013-03-19 10:23:00,
2013-03-19 06:33:00,69.0,68.0,29.93,NE,37,0.0,-999.0,95,-99.99,,,-99.99,,2013-03-19 10:33:00,
2013-03-19 06:42:00,69.0,68.0,29.93,NE,37,0.0,-999.0,95,-99.99,,,-99.99,,2013-03-19 10:42:00,
2013-03-19 06:53:00,69.0,68.0,29.92,East,92,0.0,-999.0,95,-99.99,,,-99.99,,2013-03-19 10:53:00,
2013-03-19 07:03:00,69.0,68.0,29.92,East,94,0.0,-999.0,96,-99.99,,,-99.99,,2013-03-19 11:03:00,
2013-03-19 07:12:00,69.0,68.0,29.92,East,94,0.0,-999.0,96,-99.99,,,-99.99,,2013-03-19 11:12:00,
2013-03-19 07:22:00,70.0,68.0,29.93,SE,126,0.0,-999.0,95,-99.99,,,-99.99,,2013-03-19 11:22:00,
2013-03-19 07:33:00,70.0,68.0,29.93,SE,126,0.0,-999.0,95,-99.99,,,-99.99,,2013-03-19 11:33:00,
2013-03-19 07:43:00,70.0,68.0,29.93,SE,126,0.0,-999.0,95,-99.99,,,-99.99,,2013-03-19 11:43:00,
2013-03-19 07:53:00,70.0,69.0,29.93,West,263,0.0,-999.0,96,-99.99,,,-99.99,,2013-03-19 11:53:00,
2013-03-19 08:02:00,70.0,69.0,29.93,WSW,245,1.0,-999.0,96,-99.99,,,-99.99,,2013-03-19 12:02:00,
2013-03-19 08:12:00,70.0,69.0,29.93,WSW,245,1.0,-999.0,96,-99.99,,,-99.99,,2013-03-19 12:12:00,
2013-03-19 08:22:00,70.0,69.0,29.93,SW,236,0.0,-999.0,96,-99.99,,,-99.99,,2013-03-19 12:22:00,
2013-03-19 08:33:00,70.0,69.0,29.93,SW,236,0.0,-999.0,96,-99.99,,,-99.99,,2013-03-19 12:33:00,
2013-03-19 08:42:00,70.0,69.0,29.93,SW,236,0.0,-999.0,96,-99.99,,,-99.99,,2013-03-19 12:42:00,
2013-03-19 08:52:00,70.0,69.0,29.93,SSW,194,0.0,-999.0,96,-99.99,,,-99.99,,2013-03-19 12:52:00,
2013-03-19 09:02:00,71.0,70.0,29.93,SSE,150,0.0,-999.0,96,-99.99,,,-99.99,,2013-03-19 13:02:00,
2013-03-19 09:12:00,71.0,70.0,29.93,SSE,150,0.0,-999.0,96,-99.99,,,-99.99,,2013-03-19 13:12:00,
2013-03-19 09:22:00,71.0,69.0,29.93,South,178,0.0,-999.0,95,-99.99,,,-99.99,,2013-03-19 13:22:00,
2013-03-19 09:33:00,71.0,69.0,29.93,South,183,0.0,-999.0,95,-99.99,,,-99.99,,2013-03-19 13:33:00,
2013-03-19 09:42:00,71.0,69.0,29.93,South,183,0.0,-999.0,95,-99.99,,,-99.99,,2013-03-19 13:42:00,
2013-03-19 09:53:00,72.0,70.0,29.94,SSW,209,0.0,-999.0,95,-99.99,,,-99.99,,2013-03-19 13:53:00,
2013-03-19 10:02:00,72.0,70.0,29.95,SSW,211,0.0,-999.0,95,-99.99,,,-99.99,,2013-03-19 14:02:00,
2013-03-19 10:12:00,72.0,70.0,29.95,SSW,211,0.0,-999.0,95,-99.99,,,-99.99,,2013-03-19 14:12:00,
2013-03-19 10:22:00,73.0,71.0,29.94,SSW,209,3.0,-999.0,94,-99.99,,,-99.99,,2013-03-19 14:22:00,
2013-03-19 10:32:00,74.0,72.0,29.94,South,189,6.0,-999.0,94,-99.99,,,-99.99,,2013-03-19 14:32:00,
2013-03-19 10:42:00,74.0,72.0,29.94,South,189,6.0,-999.0,94,-99.99,,,-99.99,,2013-03-19 14:42:00,
2013-03-19 10:53:00,73.0,71.0,29.95,South,184,8.0,-999.0,93,-99.99,,,-99.99,,2013-03-19 14:53:00,
2013-03-19 11:02:00,73.0,71.0,29.95,SW,216,6.0,-999.0,93,-99.99,,,-99.99,,2013-03-19 15:02:00,
2013-03-19 11:12:00,73.0,71.0,29.95,SW,216,6.0,-999.0,93,-99.99,,,-99.99,,2013-03-19 15:12:00,
2013-03-19 11:22:00,73.0,71.0,29.95,South,188,9.0,-999.0,93,-99.99,,,-99.99,,2013-03-19 15:22:00,
2013-03-19 11:34:00,73.0,71.0,29.94,South,171,7.0,-999.0,93,-99.99,,,-99.99,,2013-03-19 15:34:00,
2013-03-19 11:44:00,73.0,71.0,29.94,South,171,7.0,-999.0,93,-99.99,,,-99.99,,2013-03-19 15:44:00,
2013-03-19 11:54:00,74.0,72.0,29.96,WSW,255,2.0,-999.0,92,-99.99,,,-99.99,,2013-03-19 15:54:00,
2013-03-19 12:04:00,74.0,71.0,29.97,WSW,252,5.0,-999.0,91,-99.99,,,-99.99,,2013-03-19 16:04:00,
2013-03-19 12:13:00,74.0,71.0,29.97,WSW,252,5.0,-999.0,91,-99.99,,,-99.99,,2013-03-19 16:13:00,
2013-03-19 12:24:00,73.0,70.0,29.97,WSW,257,3.0,-999.0,90,-99.99,,,-99.99,,2013-03-19 16:24:00,
2013-03-19 12:34:00,73.0,69.0,29.98,West,264,8.0,-999.0,88,-99.99,,,-99.99,,2013-03-19 16:34:00,
2013-03-19 12:44:00,73.0,69.0,29.98,West,264,8.0,-999.0,88,-99.99,,,-99.99,,2013-03-19 16:44:00,
2013-03-19 12:55:00,73.0,68.0,29.98,WSW,242,8.0,-999.0,84,-99.99,,,-99.99,,2013-03-19 16:55:00,
2013-03-19 13:03:00,73.0,68.0,29.97,West,260,7.0,-999.0,83,-99.99,,,-99.99,,2013-03-19 17:03:00,
2013-03-19 13:13:00,74.0,68.0,29.96,WSW,250,3.0,-999.0,83,-99.99,,,-99.99,,2013-03-19 17:13:00,
2013-03-19 13:23:00,74.0,68.0,29.96,WSW,250,3.0,-999.0,83,-99.99,,,-99.99,,2013-03-19 17:23:00,
2013-03-19 13:34:00,74.0,68.0,29.97,West,273,5.0,-999.0,83,-99.99,,,-99.99,,2013-03-19 17:34:00,
2013-03-19 13:44:00,74.0,68.0,29.97,West,273,5.0,-999.0,83,-99.99,,,-99.99,,2013-03-19 17:44:00,
2013-03-19 13:53:00,74.0,69.0,29.97,West,267,7.0,-999.0,84,-99.99,,,-99.99,,2013-03-19 17:53:00,
2013-03-19 14:03:00,74.0,69.0,29.96,West,260,8.0,-999.0,84,-99.99,,,-99.99,,2013-03-19 18:03:00,
2013-03-19 14:13:00,74.0,69.0,29.96,West,260,8.0,-999.0,84,-99.99,,,-99.99,,2013-03-19 18:13:00,
2013-03-19 14:23:00,74.0,69.0,29.97,WSW,257,8.0,-999.0,84,-99.99,,,-99.99,,2013-03-19 18:23:00,
2013-03-19 14:34:00,74.0,69.0,29.97,West,281,9.0,-999.0,84,-99.99,,,-99.99,,2013-03-19 18:34:00,
2013-03-19 14:43:00,74.0,69.0,29.97,West,281,9.0,-999.0,84,-99.99,,,-99.99,,2013-03-19 18:43:00,
2013-03-19 14:53:00,74.0,69.0,29.95,WSW,257,8.0,-999.0,85,-99.99,,,-99.99,,2013-03-19 18:53:00,
2013-03-19 15:02:00,74.0,69.0,29.93,SW,236,6.0,-999.0,85,-99.99,,,-99.99,,2013-03-19 19:02:00,
2013-03-19 15:12:00,74.0,69.0,29.93,SW,236,6.0,-999.0,85,-99.99,,,-99.99,,2013-03-19 19:12:00,
2013-03-19 15:22:00,74.0,69.0,29.93,WSW,250,8.0,-999.0,85,-99.99,,,-99.99,,2013-03-19 19:22:00,
2013-03-19 15:33:00,74.0,69.0,29.93,West,270,9.0,-999.0,85,-99.99,,,-99.99,,2013-03-19 19:33:00,
2013-03-19 15:43:00,74.0,69.0,29.93,West,270,9.0,-999.0,85,-99.99,,,-99.99,,2013-03-19 19:43:00,
2013-03-19 15:53:00,73.0,68.0,29.93,West,269,3.0,-999.0,84,-99.99,,,-99.99,,2013-03-19 19:53:00,
2013-03-19 16:03:00,73.0,68.0,29.93,West,269,3.0,-999.0,84,-99.99,,,-99.99,,2013-03-19 20:03:00,
2013-03-19 16:12:00,73.0,68.0,29.93,WNW,284,8.0,-999.0,84,-99.99,,,-99.99,,2013-03-19 20:12:00,
2013-03-19 16:22:00,73.0,68.0,29.93,WNW,284,8.0,-999.0,84,-99.99,,,-99.99,,2013-03-19 20:22:00,
2013-03-19 16:33:00,74.0,69.0,29.93,West,278,8.0,-999.0,84,-99.99,,,-99.99,,2013-03-19 20:33:00,
2013-03-19 16:43:00,74.0,69.0,29.93,West,278,8.0,-999.0,84,-99.99,,,-99.99,,2013-03-19 20:43:00,
2013-03-19 16:53:00,74.0,69.0,29.91,West,281,0.0,-999.0,84,-99.99,,,-99.99,,2013-03-19 20:53:00,
2013-03-19 17:02:00,74.0,69.0,29.90,West,281,0.0,-999.0,84,-99.99,,,-99.99,,2013-03-19 21:02:00,
2013-03-19 17:12:00,74.0,69.0,29.90,West,281,0.0,-999.0,84,-99.99,,,-99.99,,2013-03-19 21:12:00,
2013-03-19 17:23:00,74.0,69.0,29.90,NW,310,5.0,-999.0,85,-99.99,,,-99.99,,2013-03-19 21:23:00,
2013-03-19 17:34:00,73.0,68.0,29.90,WNW,299,9.0,-999.0,85,-99.99,,,-99.99,,2013-03-19 21:34:00,
2013-03-19 17:43:00,73.0,68.0,29.90,WNW,299,9.0,-999.0,85,-99.99,,,-99.99,,2013-03-19 21:43:00,
2013-03-19 17:53:00,73.0,68.0,29.88,NW,314,1.0,-999.0,84,-99.99,,,-99.99,,2013-03-19 21:53:00,
2013-03-19 18:03:00,73.0,68.0,29.90,NW,307,6.0,-999.0,83,-99.99,,,-99.99,,2013-03-19 22:03:00,
2013-03-19 18:13:00,73.0,68.0,29.90,NW,307,6.0,-999.0,83,-99.99,,,-99.99,,2013-03-19 22:13:00,
2013-03-19 18:23:00,73.0,68.0,29.89,WNW,286,6.0,-999.0,83,-99.99,,,-99.99,,2013-03-19 22:23:00,
2013-03-19 18:33:00,74.0,68.0,29.89,WNW,283,5.0,-999.0,83,-99.99,,,-99.99,,2013-03-19 22:33:00,
2013-03-19 18:43:00,74.0,68.0,29.89,West,281,6.0,-999.0,83,-99.99,,,-99.99,,2013-03-19 22:43:00,
2013-03-19 18:53:00,74.0,68.0,29.89,West,281,6.0,-999.0,83,-99.99,,,-99.99,,2013-03-19 22:53:00,
2013-03-19 19:03:00,73.0,68.0,29.90,West,260,6.0,-999.0,84,-99.99,,,-99.99,,2013-03-19 23:03:00,
2013-03-19 19:12:00,73.0,68.0,29.90,West,260,6.0,-999.0,84,-99.99,,,-99.99,,2013-03-19 23:12:00,
2013-03-19 19:22:00,72.0,67.0,29.89,West,269,6.0,-999.0,85,-99.99,,,-99.99,,2013-03-19 23:22:00,
2013-03-19 19:32:00,72.0,68.0,29.90,West,269,7.0,-999.0,86,-99.99,,,-99.99,,2013-03-19 23:32:00,
2013-03-19 19:42:00,72.0,68.0,29.90,West,269,7.0,-999.0,86,-99.99,,,-99.99,,2013-03-19 23:42:00,
2013-03-19 19:53:00,72.0,68.0,29.90,WSW,243,6.0,-999.0,87,-99.99,,,-99.99,,2013-03-19 23:53:00,
2013-03-19 20:03:00,72.0,68.0,29.90,WSW,242,6.0,-999.0,87,-99.99,,,-99.99,,2013-03-20 00:03:00,
2013-03-19 20:13:00,72.0,68.0,29.90,WSW,242,6.0,-999.0,87,-99.99,,,-99.99,,2013-03-20 00:13:00,
2013-03-19 20:22:00,71.0,67.0,29.91,West,274,10.0,-999.0,88,-99.99,,,-99.99,,2013-03-20 00:22:00,
2013-03-19 20:33:00,71.0,68.0,29.91,WNW,286,10.0,-999.0,89,-99.99,,,-99.99,,2013-03-20 00:33:00,
2013-03-19 20:42:00,71.0,68.0,29.91,WNW,286,10.0,-999.0,89,-99.99,,,-99.99,,2013-03-20 00:42:00,
2013-03-19 20:52:00,71.0,68.0,29.91,West,279,10.0,-999.0,90,-99.99,,,-99.99,,2013-03-20 00:52:00,
2013-03-19 21:03:00,71.0,68.0,29.91,WNW,285,11.0,-999.0,90,-99.99,,,-99.99,,2013-03-20 01:03:00,
2013-03-19 21:12:00,71.0,68.0,29.91,WNW,285,11.0,-999.0,90,-99.99,,,-99.99,,2013-03-20 01:12:00,
2013-03-19 21:22:00,71.0,68.0,29.93,WNW,285,10.0,-999.0,91,-99.99,,,-99.99,,2013-03-20 01:22:00,
2013-03-19 21:32:00,71.0,68.0,29.92,WNW,283,9.0,-999.0,91,-99.99,,,-99.99,,2013-03-20 01:32:00,
2013-03-19 21:42:00,71.0,68.0,29.92,WNW,283,9.0,-999.0,91,-99.99,,,-99.99,,2013-03-20 01:42:00,
2013-03-19 21:53:00,71.0,69.0,29.93,West,271,9.0,-999.0,92,-99.99,,,-99.99,,2013-03-20 01:53:00,
2013-03-19 22:02:00,71.0,69.0,29.93,WNW,282,7.0,-999.0,92,-99.99,,,-99.99,,2013-03-20 02:02:00,
2013-03-19 22:12:00,71.0,69.0,29.93,WNW,282,7.0,-999.0,92,-99.99,,,-99.99,,2013-03-20 02:12:00,
2013-03-19 22:22:00,71.0,69.0,29.94,WNW,291,6.0,-999.0,92,-99.99,,,-99.99,,2013-03-20 02:22:00,
2013-03-19 22:32:00,71.0,69.0,29.94,WNW,293,3.0,-999.0,92,-99.99,,,-99.99,,2013-03-20 02:32:00,
2013-03-19 22:42:00,71.0,69.0,29.94,WNW,293,3.0,-999.0,92,-99.99,,,-99.99,,2013-03-20 02:42:00,
2013-03-19 22:53:00,70.0,68.0,29.94,WNW,296,4.0,-999.0,92,-99.99,,,-99.99,,2013-03-20 02:53:00,
2013-03-19 23:02:00,70.0,67.0,29.94,WNW,290,4.0,-999.0,91,-99.99,,,-99.99,,2013-03-20 03:02:00,
2013-03-19 23:12:00,70.0,67.0,29.95,NW,304,5.0,-999.0,91,-99.99,,,-99.99,,2013-03-20 03:12:00,
2013-03-19 23:22:00,70.0,67.0,29.95,NW,304,5.0,-999.0,91,-99.99,,,-99.99,,2013-03-20 03:22:00,
2013-03-19 23:34:00,70.0,67.0,29.95,WNW,302,6.0,-999.0,90,-99.99,,,-99.99,,2013-03-20 03:34:00,
2013-03-19 23:43:00,70.0,67.0,29.95,WNW,302,6.0,-999.0,90,-99.99,,,-99.99,,2013-03-20 03:43:00,
2013-03-19 23:53:00,71.0,68.0,29.94,NW,306,4.0,-999.0,90,-99.99,,,-99.99,,2013-03-20 03:53:00,